This is the latest recevied weather packets stored in our database for station/object N4RCT. If no packets are shown the sender has not sent any weather packets the latest 10 day(s).
| Time | Temp. | Humidity | Pressure | Rain* | Wind** | Luminosity | Snow |
|---|---|---|---|---|---|---|---|
| 1777634951 | 10° C | 90% | 1012.8 hPa | 0 mm | - | 16 W/m² | - |
| 1777634649 | 10° C | 91% | 1012.5 hPa | 0 mm | - | 12 W/m² | - |
| 1777634346 | 10° C | 91% | 1012.4 hPa | 0 mm | - | 20 W/m² | - |
| 1777634042 | 9.44° C | 91% | 1012.4 hPa | 0 mm | - | 17 W/m² | - |
| 1777633739 | 9.44° C | 91% | 1012.4 hPa | 0 mm | - | 12 W/m² | - |
| 1777633437 | 9.44° C | 91% | 1012.5 hPa | 0 mm | - | 6 W/m² | - |
| 1777633134 | 9.44° C | 92% | 1012.3 hPa | 0 mm | - | 5 W/m² | - |
| 1777632830 | 9.44° C | 90% | 1012.1 hPa | 0 mm | - | 3 W/m² | - |
| 1777632526 | 9.44° C | 91% | 1012.2 hPa | 0 mm | - | 1 W/m² | - |
| 1777632218 | 9.44° C | 89% | 1012.2 hPa | 0 mm | - | 0 W/m² | - |
| 1777631916 | 10° C | 89% | 1012.2 hPa | 0 mm | - | 0 W/m² | - |
| 1777631614 | 10° C | 86% | 1012.2 hPa | 0 mm | - | 0 W/m² | - |
| 1777631311 | 10° C | 88% | 1012.4 hPa | 0 mm | - | 0 W/m² | - |
| 1777631008 | 10.56° C | 87% | 1012.1 hPa | 0 mm | - | 0 W/m² | - |
| 1777630703 | 10.56° C | 86% | 1012.2 hPa | 0 mm | - | 0 W/m² | - |
| 1777630401 | 10.56° C | 85% | 1012 hPa | 0 mm | - | 0 W/m² | - |
| 1777630098 | 11.11° C | 85% | 1012.2 hPa | 0 mm | - | 0 W/m² | - |
| 1777629795 | 11.11° C | 83% | 1012.1 hPa | 0 mm | - | 0 W/m² | - |
| 1777629491 | 11.11° C | 85% | 1012.2 hPa | 0 mm | - | 0 W/m² | - |
| 1777629182 | 11.11° C | 83% | 1012 hPa | 0 mm | - | 0 W/m² | - |
| 1777628878 | 11.11° C | 83% | 1012.4 hPa | 0 mm | - | 0 W/m² | - |
| 1777628576 | 11.11° C | 82% | 1012.3 hPa | 0 mm | - | 0 W/m² | - |
| 1777628270 | 11.67° C | 81% | 1012 hPa | 0 mm | - | 0 W/m² | - |
| 1777627967 | 11.67° C | 80% | 1012.3 hPa | 0 mm | - | 0 W/m² | - |
| 1777627661 | 11.67° C | 80% | 1012.3 hPa | 0 mm | - | 0 W/m² | - |
* Rain latest hour (hover to see other rain measurements)
** Current wind speed in m/s (hover to see current wind gust speed)